Regional Weather Roundup
Issued by NWS Little Rock, AR

Home | Current Version | Previous Version | Graphics & Text | Print | Product List | Glossary On
Versions: 1 2 3 4 5 6 7 8 9 10 11 12 13 14 15 16 17 18 19 20 21 22 23 24 25 26 27 28 29 30 31 32
000
ASUS44 KLZK 211705
RWRLZK

WEATHER ROUNDUP FOR ARKANSAS
NATIONAL WEATHER SERVICE LITTLE ROCK AR
1100 AM CST SUN JAN 21 2018

NOTE: "FAIR" INDICATES FEW OR NO CLOUDS BELOW 12,000 FEET WITH NO
SIGNIFICANT WEATHER AND/OR OBSTRUCTIONS TO VISIBILITY.

ARZ001-003-010-029-211800-
NORTHWEST ARKANSAS

CITY           SKY/WX    TMP DP  RH WIND       PRES   REMARKS
FAYETTEVILLE   PTSUNNY   67  57  70 S15G25    29.91S
FORT SMITH     CLOUDY    68  61  78 SW10      29.91F
HARRISON       PTSUNNY   65  55  70 S15G25    29.94F
BENTONVILLE    CLOUDY    65  55  70 S20G30    29.91F
ROGERS         PTSUNNY   66  55  67 S29G35    29.90F
SILOAM SPGS    CLOUDY    67  56  67 S24       29.89F
HIGHFILL       LGT RAIN  65  55  70 S20G36    29.88F
SPRINGDALE     PTSUNNY   66  55  68 S22G32    29.92S
$$

ARZ004-005-016-211800-
NORTH CENTRAL ARKANSAS

CITY           SKY/WX    TMP DP  RH WIND       PRES   REMARKS
BATESVILLE     CLOUDY    60  56  86 S13G18    30.03S
FLIPPIN        PTSUNNY   67  57  70 S10G18    29.95F
MTN HOME       CLOUDY    65  57  75 SW13G22   29.95S
$$

ARZ040-041-211800-
WEST CENTRAL ARKANSAS

CITY           SKY/WX    TMP DP  RH WIND       PRES   REMARKS
MENA           CLOUDY    64  64 100 SE3       29.96F
MOUNT IDA      CLOUDY    65  60  84 MISG      29.96F
$$

ARZ009-017-025-026-028-211800-
NORTHEAST ARKANSAS

CITY           SKY/WX    TMP DP  RH WIND       PRES   REMARKS
JONESBORO      CLOUDY    55  53  93 S17       30.06F
NEWPORT        FAIR      56  54  93 S18       30.04S
WALNUT RIDGE   CLOUDY    55  53  93 S15       30.04F
BLYTHEVILLE    CLOUDY    59  59 100 S9        30.09F
$$

ARZ022-023-033-042-044-211800-
CENTRAL ARKANSAS

CITY           SKY/WX    TMP DP  RH WIND       PRES   REMARKS
LITTLE ROCK    CLOUDY    63  58  83 S12G24    30.04S
N LITTLE ROCK    N/A     60  58  92 S9        29.98S
JACKSONVILLE   CLOUDY    60  59  95 SE8       30.03S
SEARCY         CLOUDY    59  59 100 S12       30.05F
HOT SPRINGS    CLOUDY    62  60  93 S10       30.01F
RUSSELLVILLE   RAIN      62  61  96 SE5       29.97F FOG
CLINTON        CLOUDY    61  59  94 SE9G15    30.00S
$$

ARZ036-211800-
EAST ARKANSAS

CITY           SKY/WX    TMP DP  RH WIND       PRES   REMARKS
WEST MEMPHIS   CLOUDY    57  54  89 S15       30.09F
$$

ARZ050-053-066-070-073-211800-
SOUTHWEST ARKANSAS

CITY           SKY/WX    TMP DP  RH WIND       PRES   REMARKS
ARKADELPHIA    CLOUDY    63  60  90 S9        30.03F
CAMDEN         CLOUDY    64  57  77 S7        30.06S
TEXARKANA      CLOUDY    63  61  93 S10       30.01F
EL DORADO      CLOUDY    63  61  93 S9        30.07S
DE QUEEN       CLOUDY    67  62  84 S14G24    29.95F
$$

ARZ056-057-069-211800-
SOUTHEAST ARKANSAS

CITY           SKY/WX    TMP DP  RH WIND       PRES   REMARKS
PINE BLUFF     CLOUDY    60  56  86 S14G26    30.07F
STUTTGART      CLOUDY    58  55  90 S16       30.08S
MONTICELLO     CLOUDY    61  54  77 S8G17     30.10F

$$






USA.gov is the U.S. government's official web portal to all federal, state and local government web resources and services.